Location: Cutcane
(34.9365°N, 84.2371°W)
Time: 03:09:04
(UTC+00:00)

X-37B - Visible Passes

Search period start: 16 August 2022 00:00
Search period end: 26 August 2022 00:00
Orbit: 328 x 343 km, 45.0° (Epoch: 12 August)

Date Brightness Start Highest point End Pass type
(mag) Time Alt. Az. Time Alt. Az. Time Alt. Az.
16 Aug 1.3 09:19:47 32° NNW 09:20:41 46° NNE 09:23:29 10° ESE visible
17 Aug 0.4 09:40:41 47° WSW 09:41:07 54° SW 09:43:57 10° SE visible
18 Aug 2.2 10:02:00 16° SSW 10:02:00 16° SSW 10:03:19 10° S visible
20 Aug 1.6 01:05:27 10° SSW 01:07:45 23° SE 01:09:04 16° E visible
21 Aug 0.1 01:25:15 10° SW 01:28:03 80° SSE 01:29:43 22° ENE visible
22 Aug 1.9 01:45:57 10° W 01:48:34 33° NNW 01:49:59 20° NNE visible
23 Aug 2.9 02:07:13 10° WNW 02:09:14 18° NNW 02:09:58 16° N visible
24 Aug 1.9 00:51:23 10° W 00:54:00 34° NNW 00:56:37 10° NE visible
24 Aug 3.6 02:28:47 10° NW 02:29:43 12° NNW 02:29:43 12° NNW visible
25 Aug 3.0 01:12:39 10° WNW 01:14:40 18° NNW 01:16:42 10° NNE visible
